Location: Berg
(48.4333°N, 13.9167°E)
Time: 15:19:53
(UTC+00:00)

CZ-4 R/B - Pass Details

Date: 18 September 2020
Orbit: 530 x 600 km, 97.7° (Epoch: 24 October)

Event Time Altitude Azimuth Distance (km) Brightness Sun altitude
Rises 18:44:49 0° 209° (SSW) 2,838 5.1 -16.2°
Reaches altitude 10° 18:47:43 10° 231° (SW) 1,941 4.5 -16.6°
Maximum altitude 18:50:22 16° 270° (W) 1,580 4.6 -17.0°
Drops below altitude 10° 18:53:01 10° 309° (NW) 1,944 5.3 -17.4°
Sets 18:55:57 0° 331° (NNW) 2,844 5.8 -17.9°
